Theta_e
348 356 361 359 355 354 352 351 352 353 353 353 352 352 351 351 350 350 351 352 353 350 349 350 351 350 349 348 348 347 347 347 346 346 345 344 342 341 341 340 339 334 339
353 356 361 359 356 355 353 351 351 352 353 352 352 351 350 350 351 351 352 352 350 349 350 351 352 352 351 350 349 348 347 345 345 345 345 344 342 341 341 340 341 336 340
354 355 358 360 356 355 353 352 351 352 352 351 350 351 351 351 351 351 351 350 350 351 351 350 350 351 351 350 349 349 348 348 347 342 341 337 338 340 340 340 340 341 340
354 353 355 360 357 356 354 352 351 351 351 350 351 351 351 351 352 352 351 352 351 352 351 350 350 348 347 346 346 346 346 345 344 345 338 338 338 340 339 340 339 340 339
352 351 356 360 357 355 354 352 351 351 351 351 352 352 352 352 353 354 352 352 351 351 349 348 347 347 346 345 344 344 344 345 346 346 341 337 338 342 341 340 338 338 338
350 350 358 359 357 355 354 352 352 352 352 353 352 351 351 352 353 353 352 351 351 349 348 348 347 347 348 347 347 347 346 345 347 339 339 340 338 342 343 342 339 338 337
350 350 356 359 357 355 354 353 353 353 353 353 353 352 352 353 353 353 352 351 349 349 347 346 346 345 345 346 347 348 349 351 347 341 339 337 338 344 344 341 340 340 338
348 353 354 358 357 357 355 354 353 353 353 353 354 353 353 353 352 352 351 350 349 348 347 346 346 346 349 349 349 351 350 350 348 345 337 337 340 344 346 343 341 341 340
349 352 352 353 354 357 356 355 354 354 353 354 354 354 353 352 352 352 351 350 350 349 349 349 350 351 352 352 352 353 352 352 349 346 336 336 340 344 347 344 343 342 341
348 350 350 350 350 350 351 355 355 354 354 353 353 353 353 352 352 351 352 352 351 350 350 351 352 354 354 354 354 354 354 354 351 347 345 340 340 344 348 347 345 343 342
345 346 350 351 346 348 349 351 355 355 354 354 352 352 353 348 348 350 350 351 351 352 353 354 355 356 355 355 355 355 355 353 351 349 347 346 349 348 348 350 347 345 344
340 344 347 348 349 348 351 349 349 350 350 350 350 349 349 347 346 349 351 352 354 354 355 357 357 356 355 351 350 351 349 348 347 348 349 350 350 351 351 351 350 348 346
340 343 344 346 347 346 346 345 347 346 346 350 349 348 347 347 345 347 347 347 348 351 350 351 350 350 349 349 348 347 347 347 347 347 348 352 351 353 353 354 355 350 348
339 342 344 346 345 345 343 344 345 345 346 346 346 346 345 344 342 341 342 345 345 346 347 348 348 348 347 348 347 347 346 345 347 348 348 347 351 352 354 356 356 354 352
336 341 344 345 344 344 341 343 343 343 344 344 343 344 343 341 340 340 340 341 342 344 345 345 346 346 345 344 343 344 345 346 345 346 345 345 346 349 351 355 357 355 353
333 337 342 344 344 342 342 341 341 342 342 342 342 342 343 342 340 339 338 338 339 341 344 345 344 343 342 341 341 344 346 347 346 347 347 346 345 350 349 354 357 355 355
333 335 337 341 342 340 341 340 340 340 341 340 341 341 342 342 341 342 340 340 339 339 338 338 337 337 336 341 341 343 344 344 344 344 344 343 342 342 346 348 349 352 354
334 332 335 340 339 338 337 339 338 337 338 338 338 339 341 341 342 341 340 341 344 341 342 339 338 340 339 338 337 340 340 340 341 341 341 340 340 340 342 345 347 348 347
335 334 334 336 335 335 336 338 338 339 339 342 342 341 340 342 343 341 342 343 342 339 336 339 335 337 333 331 331 338 338 337 338 338 335 336 339 340 339 339 341 343 342
335 335 335 335 335 336 337 341 341 340 341 340 340 343 345 345 344 340 338 336 336 335 334 334 331 332 330 328 329 332 333 333 334 334 334 336 336 336 336 336 337 337 338
333 333 333 334 337 338 339 341 339 337 335 335 337 338 339 340 341 340 338 336 336 336 334 334 332 330 330 330 328 330 328 328 330 331 334 333 332 333 334 335 337 337 338
337 336 337 337 339 340 342 341 340 337 334 333 334 335 334 335 335 334 333 333 334 332 331 333 331 329 329 330 326 322 320 323 326 331 331 331 331 332 332 334 335 337 338
337 338 339 340 343 343 342 339 336 333 333 331 331 330 332 331 332 331 330 328 327 326 324 324 327 328 325 328 329 326 320 318 322 330 330 330 331 332 335 335 336 337 337
335 337 339 340 342 340 340 336 333 332 328 330 329 330 330 329 326 325 325 324 323 320 320 321 321 321 324 318 325 327 327 325 320 318 326 328 330 330 332 335 335 337 337
334 334 334 336 338 339 338 337 335 331 328 326 323 322 320 321 321 319 319 318 316 315 317 318 318 317 317 317 317 321 321 322 325 320 316 319 325 329 333 334 336 336 336
331 330 331 332 332 334 335 334 331 325 322 319 317 316 316 315 314 315 316 316 316 314 313 313 314 314 315 315 315 317 316 315 316 317 315 316 318 326 328 334 334 334 335
Wind_Speed
6 9 14 14 13 14 15 15 14 15 15 15 15 16 15 15 15 15 15 14 13 14 14 15 15 15 15 15 14 13 12 12 12 12 11 10 11 11 11 11 9 9 8
12 9 13 14 13 14 14 14 14 14 14 14 15 15 15 15 15 15 14 14 14 14 14 14 14 14 13 13 13 12 11 11 11 10 9 9 8 8 9 9 9 9 9
11 9 11 14 15 15 14 13 13 13 13 14 15 15 15 15 15 14 13 13 13 13 14 14 13 12 11 11 10 9 9 10 10 8 7 4 4 7 7 7 9 9 8
14 9 7 13 13 14 14 13 13 13 14 15 15 15 14 14 13 13 13 12 11 11 11 11 11 10 8 8 7 6 5 3 2 4 4 3 2 6 6 7 7 7 7
10 8 9 14 14 14 13 13 13 13 14 14 15 14 13 13 12 11 11 10 9 9 9 9 9 8 6 4 3 1 2 3 4 3 5 3 2 5 6 6 6 7 7
8 6 11 14 14 15 14 14 13 13 14 14 14 14 13 12 11 9 9 8 7 7 7 7 6 5 5 3 1 1 3 3 3 3 4 6 5 6 7 8 7 7 7
11 5 7 14 15 15 14 13 13 13 13 13 13 13 12 11 10 9 8 7 6 5 4 4 4 2 1 1 0 2 3 4 2 4 3 6 7 9 10 8 9 9 9
14 7 6 12 13 13 13 13 12 12 12 12 12 11 11 10 9 7 6 5 4 3 3 2 2 2 2 2 3 3 5 6 4 4 4 5 7 10 11 10 10 11 11
11 7 6 6 10 14 13 13 12 12 11 10 10 9 9 8 7 6 6 5 5 4 5 5 6 6 6 5 5 5 7 7 3 3 3 4 8 10 11 11 12 11 11
10 10 5 5 5 6 6 13 13 12 12 11 10 9 8 8 7 6 5 6 7 6 7 7 7 8 8 7 8 8 9 10 5 4 4 4 10 12 13 13 13 12 12
10 10 10 9 5 5 5 7 11 13 12 11 10 9 6 3 4 5 5 7 8 8 8 9 9 9 9 9 9 10 11 4 5 4 3 9 11 14 16 15 14 14 14
14 15 12 12 11 7 5 4 5 5 4 4 4 5 3 4 3 4 6 9 9 10 10 10 10 10 11 5 4 7 4 6 5 6 4 10 11 12 17 17 16 16 16
12 10 11 12 12 10 4 3 1 1 2 3 5 4 4 3 2 2 3 3 3 7 4 6 6 5 7 6 6 4 5 5 4 4 7 9 10 13 16 17 17 18 17
12 11 10 13 11 11 4 3 3 4 4 5 6 5 4 2 3 4 3 4 4 3 6 4 4 5 7 7 8 7 7 6 3 3 3 7 8 10 14 17 19 19 17
12 12 10 12 11 8 6 4 4 4 4 5 4 5 4 4 4 2 3 3 4 3 4 6 5 4 6 6 6 7 8 7 5 3 3 7 9 10 13 16 19 18 19
11 11 10 12 9 6 7 5 5 3 3 4 4 5 6 4 3 3 3 4 3 2 3 4 5 5 5 4 6 5 6 5 4 5 4 4 8 11 13 14 18 14 18
13 11 13 12 10 9 7 5 3 3 3 4 4 5 5 5 3 3 3 2 3 3 2 2 3 2 2 1 2 3 4 4 2 4 4 4 6 10 12 12 11 14 15
11 15 13 12 12 10 8 5 4 4 4 4 4 3 5 6 5 4 3 3 2 0 2 1 1 1 1 2 2 3 3 4 5 5 5 5 5 4 6 10 8 9 9
15 14 14 14 13 12 7 5 5 4 2 2 3 3 5 3 5 4 3 1 3 3 3 1 3 2 3 5 5 3 4 4 5 4 6 6 7 5 4 9 12 10 12
14 13 11 9 10 9 6 5 3 4 3 3 2 3 4 3 6 6 4 4 4 3 4 3 3 3 2 3 4 4 4 3 3 3 5 5 6 7 6 7 6 7 13
8 9 11 10 8 10 7 6 4 4 3 2 4 6 8 6 5 6 4 5 4 4 4 2 1 3 2 3 2 3 3 3 3 3 3 4 7 8 8 7 6 5 6
9 10 10 10 12 9 7 4 4 4 3 3 4 7 7 7 7 6 5 5 5 4 4 5 4 2 2 3 2 0 3 4 3 5 3 4 6 6 9 8 9 8 7
11 13 13 12 12 9 11 10 7 7 5 3 4 4 5 6 6 7 7 6 6 5 4 5 4 5 3 2 4 2 2 2 3 3 4 4 6 7 7 8 8 8 6
4 7 10 10 11 11 12 11 15 7 6 3 3 5 5 6 8 7 8 7 6 4 6 5 4 4 2 4 2 4 2 2 3 4 4 6 6 8 10 6 7 7 5
4 5 6 9 10 11 10 12 9 10 6 6 6 8 7 6 6 8 6 7 6 5 5 5 4 5 3 2 3 3 2 2 3 3 5 9 7 6 6 7 7 5 5
3 5 6 9 7 9 10 11 14 15 13 10 8 7 5 5 4 6 5 5 5 5 5 4 4 6 4 4 3 4 4 3 3 3 4 7 9 5 9 6 6 5 4
Wind_Direction
189 157 157 150 139 122 120 120 118 115 113 113 111 109 110 113 113 111 111 105 97 98 97 97 96 95 94 91 89 87 82 76 72 76 90 87 91 97 91 90 73 90 81
142 141 152 148 140 127 123 121 120 119 116 113 112 112 115 117 115 113 111 105 104 103 102 100 98 97 96 96 95 92 90 87 78 77 70 79 95 101 105 107 90 101 92
133 137 152 152 145 133 127 122 121 122 119 117 118 120 121 119 117 114 111 110 111 110 105 106 107 107 108 108 108 106 105 110 77 88 95 95 112 115 114 119 119 104 103
142 139 146 151 142 133 127 127 127 127 125 124 123 122 121 120 119 118 117 117 115 112 108 108 110 111 112 114 118 123 144 183 168 142 125 135 140 132 137 139 127 125 124
135 133 154 148 143 134 129 129 131 132 132 130 127 125 124 125 125 123 124 124 122 118 116 116 115 116 118 113 115 153 222 260 276 265 190 189 186 163 157 151 145 142 134
122 126 160 149 145 140 140 143 145 143 140 136 134 132 135 136 137 138 137 133 130 127 126 123 119 123 122 121 110 333 323 316 318 298 215 192 187 194 181 185 165 159 151
146 132 148 152 150 150 150 150 152 151 147 143 142 144 148 149 151 148 145 145 144 144 151 143 145 149 130 139 16 333 329 323 354 325 231 188 186 203 187 190 182 173 169
157 144 147 156 154 155 157 157 161 158 156 153 153 152 156 161 156 154 158 169 178 192 217 244 256 268 274 308 309 304 306 308 328 314 218 206 202 208 209 200 196 189 181
158 154 150 155 169 167 165 164 167 165 166 166 162 163 165 171 173 176 188 203 219 233 259 272 286 293 298 309 305 298 294 296 276 287 227 205 217 220 220 209 209 204 194
166 176 157 154 164 165 171 176 175 173 174 171 174 175 178 190 197 207 223 240 250 258 274 287 293 297 300 302 298 297 296 292 290 260 247 238 228 223 226 220 216 213 209
182 189 186 177 180 180 170 186 184 185 182 178 177 189 190 197 221 230 241 252 269 278 282 285 287 289 291 293 294 296 298 288 282 268 240 254 244 233 228 226 217 219 217
189 191 189 192 194 190 190 191 164 190 168 158 170 189 186 207 217 231 248 258 264 273 281 281 285 284 291 286 286 290 285 285 286 284 261 255 252 240 231 227 219 219 218
182 185 188 192 197 198 191 154 154 175 148 174 183 186 201 208 239 250 259 270 284 274 275 284 290 290 293 297 300 299 282 285 275 286 294 288 255 249 243 232 224 218 220
186 187 185 195 198 199 162 153 173 196 194 200 207 193 191 201 222 235 250 261 261 274 279 266 267 277 286 287 286 290 276 279 262 272 279 298 289 274 261 244 229 219 215
189 186 185 191 201 202 179 159 162 189 193 202 201 205 190 206 219 232 261 279 285 298 285 291 287 289 290 292 288 275 279 283 288 289 290 294 298 292 281 258 240 225 220
188 189 179 187 188 176 198 177 180 180 185 206 211 214 205 214 205 216 250 256 263 256 271 278 281 286 284 297 306 303 295 298 305 289 293 297 303 304 301 286 261 245 224
188 182 185 186 179 179 190 182 180 166 188 232 235 223 202 209 183 201 263 277 282 291 303 290 284 278 277 343 351 345 334 323 313 305 308 312 312 308 313 310 298 285 240
183 188 182 185 180 176 179 173 170 184 195 230 241 241 210 216 181 166 234 224 226 163 77 60 334 294 9 13 319 317 316 314 303 294 313 311 298 299 312 315 301 288 290
193 185 188 181 175 175 174 156 170 171 190 235 258 257 247 209 179 155 165 102 92 75 65 1 30 335 6 340 315 296 282 283 304 327 306 302 291 290 290 291 285 269 269
193 191 182 177 159 165 144 120 112 103 91 49 42 16 44 112 122 107 83 84 85 80 56 32 49 27 340 305 306 313 300 303 309 300 300 312 306 296 295 279 263 271 260
182 166 169 162 162 154 151 148 136 109 105 68 66 59 61 69 79 97 101 100 103 88 95 106 215 330 333 341 338 317 324 334 320 274 297 305 305 303 300 281 263 261 263
163 165 154 164 161 174 160 127 127 126 98 107 93 84 89 94 86 89 84 75 72 72 49 60 44 296 316 357 357 343 352 340 322 315 334 334 322 308 303 290 277 269 263
163 163 161 163 158 156 128 117 104 95 102 93 76 83 77 85 86 103 88 80 76 79 74 56 35 37 20 339 21 348 351 334 317 318 336 330 321 314 301 291 276 270 266
149 133 144 146 139 135 141 136 146 143 143 119 121 99 75 70 79 70 77 75 68 64 64 52 42 35 61 23 336 21 41 285 334 326 323 319 333 320 315 307 284 270 282
139 138 123 122 127 141 140 139 131 119 115 112 108 101 95 81 84 80 76 80 73 71 70 64 54 50 41 59 33 343 357 324 356 297 313 327 325 327 320 317 311 297 320
148 123 124 120 120 130 132 138 137 135 135 133 123 118 109 99 85 81 88 89 81 76 74 70 61 49 47 64 58 48 46 5 348 341 313 329 312 321 318 331 356 5 323